{"data":{"norad_id":58844,"epoch":"2026-09-20T06:52:16.224960Z","epoch_age_seconds":170947,"freshness":"FRESH","line1":"1 58844U 24017U   26263.28629890 -.00000626  00000+0 -74030-5 0  9990","line2":"2 58844  53.1562 108.3733 0001019  71.3592 288.7521 15.34374096148598","mean_motion":15.34374096,"eccentricity":0.0001019,"inclination_deg":53.1562,"raan_deg":108.3733,"arg_perigee_deg":71.3592,"mean_anomaly_deg":288.7521,"bstar":-7.403e-6,"rev_number":14859,"period_min":93.849342461788,"perigee_km":462.08314397122,"apogee_km":463.47732290339,"semimajor_km":6840.9172334373,"source":"CELESTRAK","updated_at":"2026-09-21T09:00:33.986046Z"}}